Flight Track Log - Related Links

Times and Time Zones

All times are in EDT time to prevent confusion due to time zone crossing. See the AWI3688 flight status page for this flight to view local times or setup timezone preferences in your user account.

Time Position Orientation Groundspeed Altitude Reporting Facility
EDT Latitude Longitude Course Direction KTS MPH feet Rate Location/Type
12:02PM 39.8833 -75.2167 46° Northeast 142 163 900  Level Philadelphia TRACON
12:03PM 39.8667 -75.1833 123° Southeast 170 196 3,000 2,500 Climbing Philadelphia TRACON
12:04PM 39.8500 -75.1000 105° East 187 215 5,900 2,166 Climbing Philadelphia TRACON
12:05PM 39.7933 -74.7495 105° East  Level FlightAware Approximate
12:06PM 39.8291 -74.6543 37° Northeast  Level FlightAware Approximate
12:06PM 39.8292 -74.9472 100° East 270 311 9,100  Level New York Center
12:07PM 39.9060 -74.5774 37° Northeast  Level FlightAware Approximate
12:07PM 39.8136 -74.8569 103° East 275 316 11,000  Level New York Center
12:08PM 39.9840 -74.5102 46° Northeast  Level FlightAware Approximate
12:08PM 39.8006 -74.7508 99° East 286 329 12,700  Level New York Center
12:09PM 39.8450 -74.6614 57° Northeast 266 306 14,400 1,613 Climbing New York Center
12:10PM 39.9161 -74.5978 34° Northeast 266 306 15,900 1,714 Climbing New York Center
12:11PM 39.9850 -74.5258 39° Northeast 291 335 17,800 1,869 Climbing New York Center
12:12PM 40.0603 -74.4567 35° Northeast 316 364 19,700 1,967 Climbing New York Center
12:13PM 40.1481 -74.3797 34° Northeast 331 381 21,800 1,780 Climbing New York Center
12:14PM 40.2292 -74.3133 32° Northeast 337 388 23,200 1,119 Climbing New York Center
12:15PM 40.3147 -74.2442 32° Northeast 348 400 24,000 400 Climbing New York Center
12:16PM 40.4019 -74.1778 30° Northeast 358 412 24,000  Level New York Center
12:18PM 40.5781 -74.0331 32° Northeast 374 430 24,000  Level Boston Center
12:19PM 40.6622 -73.9722 29° Northeast 350 403 24,000  Level Boston Center
12:20PM 40.7422 -73.9083 31° Northeast 340 391 24,000  Level Boston Center
12:21PM 40.8142 -73.8358 37° Northeast 335 386 24,000  Level Boston Center
12:22PM 40.8839 -73.7522 42° Northeast 330 380 24,000  Level Boston Center
12:23PM 40.9494 -73.6658 45° Northeast 330 380 24,000 -350 Level Boston Center
12:24PM 41.0192 -73.5872 40° Northeast 325 374 23,300 -500 Descending Boston Center
12:25PM 41.0886 -73.5031 42° Northeast 325 374 23,000 -200 Descending Boston Center
12:26PM 41.1583 -73.4189 42° Northeast 330 380 22,900 -450 Descending Boston Center
12:27PM 41.2150 -73.3481 43° Northeast 330 380 22,100 -1,000 Descending Boston Center
12:28PM 41.2992 -73.2469 42° Northeast 330 380 20,900 -1,100 Descending Boston Center
12:29PM 41.3808 -73.2175 15° North 308 354 19,900 -1,050 Descending Boston Center
12:30PM 41.4722 -73.2600 341° North 288 331 18,800 -950 Descending Boston Center
12:31PM 41.5469 -73.2889 344° North 295 339 18,000 -400 Descending Boston Center
12:32PM 41.6383 -73.3261 343° North 306 352 18,000  Level Boston Center
12:33PM 41.7194 -73.3606 342° North 301 346 18,000  Level Boston Center
12:34PM 41.7942 -73.3897 344° North 307 353 18,000 -600 Level Boston Center
12:35PM 41.8875 -73.4328 341° North 315 362 16,800 -1,817 Descending Boston Center
12:36PM 41.9539 -73.4647 340° North 323 372 14,700 -2,510 Descending Boston Center
12:37PM 42.0286 -73.4939 344° North 319 367 12,700 -2,282 Descending Boston Center
12:37PM 42.0556 -73.5053 343° North 315 362 12,000 -1,700 Descending Boston Center
12:38PM 42.1097 -73.5286 342° North 308 354 11,000 -1,000 Descending Boston Center
12:38PM 42.1283 -73.5347 346° North 315 362 11,000  Level Boston Center
12:39PM 42.1906 -73.5581 344° North 295 339 11,000 -500 Level Boston Center
12:39PM 42.2094 -73.5611 353° North 304 350 10,500 -1,869 Descending Boston Center
12:40PM 42.2675 -73.5792 347° North 291 335 9,100 -1,900 Descending Boston Center
12:40PM 42.2861 -73.5850 347° North 293 337 8,600 -2,200 Descending Boston Center
12:41PM 42.3422 -73.6058 345° North 276 318 6,900 -2,600 Descending Boston Center
12:41PM 42.3694 -73.6092 355° North 282 325 6,000 -2,066 Descending Boston Center
12:42PM 42.4172 -73.6297 342° North 280 322 4,800 -1,800 Descending Boston Center
12:42PM 42.4442 -73.6358 350° North 277 319 4,200 -787 Descending Boston Center
12:43PM 42.4919 -73.6564 342° North 273 314 4,000 -200 Descending Boston Center
12:43PM 42.5167 -73.6625 350° North 277 319 4,000  Level Boston Center
12:44PM 42.5708 -73.6750 350° North 266 306 4,000  Level Boston Center
12:44PM 42.5897 -73.6753 359° North 271 312 4,000  Level Boston Center
12:45PM 42.6417 -73.6792 357° North 255 293 4,000  Level Boston Center
12:45PM 42.6603 -73.6822 353° North 260 299 4,000 -590 Level Boston Center
12:46PM 42.7103 -73.6861 357° North 246 283 3,400 -800 Descending Boston Center
12:46PM 42.7269 -73.6864 359° North 245 282 3,200 -400 Descending Boston Center
12:47PM 42.7708 -73.6875 359° North 209 241 3,000 -200 Descending Boston Center
12:47PM 42.7853 -73.6906 351° North 220 253 3,000 -885 Level Boston Center
12:48PM 42.8183 -73.7139 333° Northwest 190 219 2,100 -1,200 Descending Boston Center

Login

Don't have an account? Register now (free) for customized features, flight alerts, and more!